Location: Unspecified
(0.0000°N, 0.0000°E)
Time: 16:40:34
(UTC+00:00)

Hubble Space Telescope - Visible Passes

Search period start: 17 January 2020 00:00
Search period end: 27 January 2020 00:00
Orbit: 536 x 540 km, 28.5° (Epoch: 16 January)

Date Brightness Start Highest point End Pass type
(mag) Time Alt. Az. Time Alt. Az. Time Alt. Az.
17 Jan 1.8 19:42:04 10° NW 19:44:45 33° NNW 19:44:45 33° NNW visible
18 Jan 0.7 19:31:18 10° NW 19:35:23 64° NNE 19:35:54 58° ENE visible
19 Jan 0.7 19:20:39 10° WNW 19:24:47 87° SSW 19:27:07 25° ESE visible
20 Jan 3.5 05:35:26 10° SSW 05:38:18 18° SSE 05:41:10 10° ESE visible
20 Jan 1.3 19:10:05 10° WNW 19:14:09 60° SSW 19:18:15 10° SE visible
21 Jan 3.0 05:24:19 10° SSW 05:27:44 24° SSE 05:31:07 10° E visible
21 Jan 2.0 18:59:38 10° W 19:03:33 41° SSW 19:07:29 10° SE visible
22 Jan 2.4 05:13:23 10° SW 05:17:08 33° SSE 05:20:53 10° E visible
22 Jan 2.7 18:49:20 10° W 18:52:58 29° SSW 18:56:36 10° SSE visible
23 Jan 1.7 05:02:33 10° SW 05:06:32 48° SSE 05:10:31 10° ENE visible
23 Jan 3.3 18:39:09 10° W 18:42:22 22° SSW 18:45:35 10° SSE visible
24 Jan 0.9 04:53:25 22° SW 04:55:55 70° SSE 05:00:01 10° ENE visible
25 Jan 0.6 04:44:38 60° WSW 04:45:19 81° NNW 04:49:26 10° ENE visible
26 Jan 1.5 04:35:45 41° NNE 04:35:45 41° NNE 04:38:44 10° NE visible
